This is the latest recevied weather packets stored in our database for station/object F5LKO-13. If no packets are shown the sender has not sent any weather packets the latest 10 day(s).
| Time | Temp. | Humidity | Pressure | Rain* | Wind** | Luminosity | Snow |
|---|---|---|---|---|---|---|---|
| 1778169303 | 20° C | 99% | 1012.1 hPa | 0 mm | - | 1 W/m² | - |
| 1778168997 | 20.56° C | 99% | 1012.1 hPa | 0 mm | - | 1 W/m² | - |
| 1778168699 | 20.56° C | 99% | 1012.1 hPa | 0 mm | - | 1 W/m² | - |
| 1778168699 | 20.56° C | 99% | 1012.1 hPa | 0 mm | - | 1 W/m² | - |
| 1778168423 | 20.56° C | 99% | 1012 hPa | 0 mm | - | 1 W/m² | - |
| 1778168384 | 20.56° C | 99% | 1012 hPa | 0 mm | - | 1 W/m² | - |
| 1778168078 | 20.56° C | 99% | 1011.9 hPa | 0 mm | - | 1 W/m² | - |
| 1778167772 | 21.67° C | 99% | 1011.9 hPa | 0 mm | - | 2 W/m² | - |
| 1778167466 | 22.78° C | 99% | 1011.8 hPa | 0 mm | - | 5 W/m² | - |
| 1778167160 | 22.22° C | 99% | 1011.8 hPa | 0 mm | - | 14 W/m² | - |
| 1778166863 | 22.78° C | 99% | 1011.7 hPa | 0 mm | - | 22 W/m² | - |
| 1778166548 | 22.22° C | 99% | 1011.7 hPa | 0 mm | - | 22 W/m² | - |
| 1778166242 | 22.22° C | 99% | 1011.8 hPa | 0 mm | - | 24 W/m² | - |
| 1778165936 | 22.78° C | 99% | 1011.8 hPa | 0 mm | - | 26 W/m² | - |
| 1778165629 | 22.22° C | 99% | 1011.8 hPa | 0 mm | - | 28 W/m² | - |
| 1778165323 | 22.22° C | 99% | 1011.9 hPa | 0 mm | - | 29 W/m² | - |
| 1778165026 | 22.22° C | 99% | 1012 hPa | 0 mm | - | 32 W/m² | - |
| 1778164711 | 21.67° C | 99% | 1012 hPa | 0 mm | - | 29 W/m² | - |
| 1778164405 | 22.22° C | 99% | 1012.1 hPa | 0 mm | - | 34 W/m² | - |
| 1778164099 | 22.22° C | 99% | 1012.2 hPa | 0 mm | - | 38 W/m² | - |
| 1778163793 | 21.67° C | 99% | 1012.3 hPa | 0 mm | - | 40 W/m² | - |
| 1778163487 | 22.22° C | 99% | 1012.3 hPa | 0 mm | - | 42 W/m² | - |
| 1778163189 | 22.22° C | 99% | 1012.3 hPa | 0 mm | - | 45 W/m² | - |
| 1778162875 | 21.67° C | 99% | 1012.4 hPa | 0 mm | - | 46 W/m² | - |
| 1778162875 | 21.67° C | 99% | 1012.4 hPa | 0 mm | - | 46 W/m² | - |
* Rain latest hour (hover to see other rain measurements)
** Current wind speed in m/s (hover to see current wind gust speed)